Location: Newark
(1.4667°N, 173.0333°E)
Time: 12:49:43
(UTC+00:00)

OTV 5 (USA 277) - Visible Passes

Search period start: 16 October 2019 00:00
Search period end: 26 October 2019 00:00
Orbit: 310 x 324 km, 54.5° (Epoch: 08 October)

Date Brightness Start Highest point End Pass type
(mag) Time Alt. Az. Time Alt. Az. Time Alt. Az.
20 Oct ? 07:32:44 10° S 07:33:02 12° S 07:33:02 12° S visible
21 Oct ? 07:47:01 10° SW 07:48:10 21° WSW 07:48:10 21° WSW visible
23 Oct ? 06:41:48 10° SSW 06:44:29 71° ESE 06:47:10 10° NE visible
24 Oct ? 06:56:56 10° WSW 06:58:58 19° WNW 07:00:59 10° N visible
25 Oct ? 16:57:39 10° NNE 16:58:55 12° ENE 17:00:10 10° E visible
